Darstellungsparameter: Aktuell verwendete Einstellungen:
Skalierung der Graphiken ... ?
xyx+y,   Skalierungsfaktor:      Skalierung: Modus: x, Faktor: 1
Darstellungszeitraum ... ?
Vom - - bis: - -   Zeitraum: 14.02.2019 - 13.08.2019
Min/Max/Avg-Anzeige ... ?
Zeige MMA aktuell
Zeige MMA Monat
Zeige MMA alles
Zeige --A aktuell
Zeige --A Monat
Zeige --A alles
Keine MMA-Anzeige
MMA:
Minimum Maximum Average (ber die Originaldaten)
MMA-Basis: 14.02.2019 - 13.08.2019
Quicknavigation für Darstellung... ?
Tage:      1T, 2T, 3T, 5T -1T -2T -3T -5T +1T +2T +3T +5T
Wochen: 1W, 2W, 3W -1W -2W -3W +1W +2W +3W
Monate: 1M, 3M, 6M -1M -3M -6M +1M +3M +6M
Jahre:    1J, 3J, 5J, 10J -1J -3J -5J -10J +1J +3J +5J +10J
Nutze für die Darstellung ... ?
Originaldaten oder ...
Mittelwerte Minima Maxima auf...
Stundenbasis Tagesbasis Wochenbasis
Monatsbasis Jahresbasis      Datenbasis: Mittelwerte auf Tagesbasis
Darstellen als:
Statistik (Auto) Statistik J:M      Darstellung:
Zur Graphik,    zurück zur Übersicht aller Sensoren.
 
Tabellarische Datenbersicht: ?
 
Sensor: Nr:Datum:Temp:Feuchte:Taupunkt:
Aussen-T/F 1 14-02-2019 00:00:00 0.77431 C 92.7674 % -0.26 C
2 15-02-2019 00:00:00 2.33854 C 89.2917 % 0.76 C
3 16-02-2019 00:00:00 3.375 C 88.6319 % 1.68 C
4 17-02-2019 00:00:00 3.45451 C 89.9236 % 1.96 C
5 18-02-2019 00:00:00 3.69653 C 86.8368 % 1.71 C
6 19-02-2019 00:00:00 5.85868 C 87.7118 % 3.98 C
7 20-02-2019 00:00:00 4.70694 C 89.0660 % 3.06 C
8 21-02-2019 00:00:00 6.3625 C 90.0174 % 4.85 C
9 22-02-2019 00:00:00 9.91111 C 88.0347 % 8.03 C
10 23-02-2019 00:00:00 5.41076 C 78.7188 % 2.02 C
11 24-02-2019 00:00:00 3.39271 C 73.0729 % -0.96 C
12 25-02-2019 00:00:00 5.05139 C 74.1181 % 0.83 C
13 26-02-2019 00:00:00 6.18646 C 80.1042 % 3.02 C
14 27-02-2019 00:00:00 6.63576 C 79.5313 % 3.36 C
15 28-02-2019 00:00:00 8.81701 C 78.9201 % 5.37 C
16 01-03-2019 00:00:00 8.12708 C 91.9583 % 6.9 C
17 02-03-2019 00:00:00 8.64236 C 85.0868 % 6.28 C
18 03-03-2019 00:00:00 11.11319 C 80.0069 % 7.8 C
19 04-03-2019 00:00:00 9.71875 C 78.3854 % 6.15 C
20 05-03-2019 00:00:00 6.87396 C 81.6181 % 3.95 C
21 06-03-2019 00:00:00 10.01944 C 78.9792 % 6.55 C
22 07-03-2019 00:00:00 10.20729 C 79.2014 % 6.77 C
23 08-03-2019 00:00:00 8.18854 C 79.1181 % 4.79 C
24 09-03-2019 00:00:00 10.36875 C 76.7188 % 6.46 C
25 10-03-2019 00:00:00 9.55694 C 76.8507 % 5.7 C
Sensor: Nr:Datum:Temp:Feuchte:Taupunkt:
Aussen-T/F 26 11-03-2019 00:00:00 4.7934 C 79.8264 % 1.61 C
27 12-03-2019 00:00:00 6.61563 C 70.1319 % 1.57 C
28 13-03-2019 00:00:00 6.20382 C 82.8472 % 3.51 C
29 14-03-2019 00:00:00 7.03611 C 87.2674 % 5.07 C
30 15-03-2019 00:00:00 10.13993 C 87.2014 % 8.11 C
31 16-03-2019 00:00:00 10.23472 C 85.5417 % 7.92 C
32 17-03-2019 00:00:00 8.66319 C 77.8160 % 5.02 C
33 18-03-2019 00:00:00 4.96458 C 85.1458 % 2.68 C
34 19-03-2019 00:00:00 3.83715 C 80.5000 % 0.8 C
35 20-03-2019 00:00:00 5.47951 C 77.2882 % 1.83 C
36 21-03-2019 00:00:00 7.53194 C 73.6076 % 3.13 C
37 22-03-2019 00:00:00 9.15799 C 72.1563 % 4.41 C
38 23-03-2019 00:00:00 6.18576 C 87.5035 % 4.27 C
39 24-03-2019 00:00:00 6.4583 C 83.7380 % 3.91 C
40 25-03-2019 00:00:00 5.13299 C 86.0243 % 2.99 C
41 26-03-2019 00:00:00 6.64792 C 81.5799 % 3.73 C
42 27-03-2019 00:00:00 6.81528 C 80.7535 % 3.75 C
43 28-03-2019 00:00:00 7.32535 C 81.7951 % 4.43 C
44 29-03-2019 00:00:00 8.96493 C 79.2708 % 5.57 C
45 30-03-2019 00:00:00 10.50104 C 72.7500 % 5.82 C
46 31-03-2019 00:00:00 10.31594 C 80.1486 % 7.05 C
47 01-04-2019 00:00:00 9.41771 C 75.2326 % 5.26 C
48 02-04-2019 00:00:00 10.74375 C 76.1979 % 6.73 C
49 03-04-2019 00:00:00 8.37083 C 86.8889 % 6.32 C
50 04-04-2019 00:00:00 6.05799 C 93.2604 % 5.05 C
Sensor: Nr:Datum:Temp:Feuchte:Taupunkt:
Aussen-T/F 51 05-04-2019 00:00:00 6.32535 C 92.0556 % 5.13 C
52 06-04-2019 00:00:00 10.20313 C 83.4549 % 7.53 C
53 07-04-2019 00:00:00 12.02083 C 75.0764 % 7.75 C
54 08-04-2019 00:00:00 12.69757 C 85.2188 % 10.28 C
55 09-04-2019 00:00:00 12.23472 C 88.4201 % 10.38 C
56 10-04-2019 00:00:00 10.80035 C 65.8750 % 4.69 C
57 11-04-2019 00:00:00 6.94306 C 60.9931 % -0.05 C
58 12-04-2019 00:00:00 5.01528 C 58.9653 % -2.32 C
59 13-04-2019 00:00:00 3.85556 C 75.6458 % -0.04 C
60 14-04-2019 00:00:00 5.53576 C 76.5590 % 1.75 C
61 15-04-2019 00:00:00 10.42187 C 69.5868 % 5.11 C
62 16-04-2019 00:00:00 11.20417 C 67.0417 % 5.32 C
63 17-04-2019 00:00:00 12.74861 C 83.8576 % 10.09 C
64 18-04-2019 00:00:00 14.16528 C 65.0556 % 7.7 C
65 19-04-2019 00:00:00 15.41285 C 56.3681 % 6.78 C
66 20-04-2019 00:00:00 14.87153 C 61.3125 % 7.5 C
67 21-04-2019 00:00:00 15.62813 C 58.4688 % 7.52 C
68 22-04-2019 00:00:00 14.99375 C 59.5382 % 7.19 C
69 23-04-2019 00:00:00 15.15903 C 61.0799 % 7.72 C
70 24-04-2019 00:00:00 15.11424 C 73.1042 % 10.34 C
71 25-04-2019 00:00:00 13.28785 C 78.5139 % 9.64 C
72 26-04-2019 00:00:00 11.86806 C 83.8681 % 9.23 C
73 27-04-2019 00:00:00 9.34688 C 89.7569 % 7.75 C
74 28-04-2019 00:00:00 8.50208 C 83.0000 % 5.79 C
75 29-04-2019 00:00:00 8.56736 C 84.4653 % 6.1 C
Sensor: Nr:Datum:Temp:Feuchte:Taupunkt:
Aussen-T/F 76 30-04-2019 00:00:00 14.05278 C 68.6979 % 8.39 C
77 01-05-2019 00:00:00 12.7816 C 76.3333 % 8.73 C
78 02-05-2019 00:00:00 11.4566 C 80.2535 % 8.18 C
79 03-05-2019 00:00:00 11.00208 C 73.3056 % 6.42 C
80 04-05-2019 00:00:00 6.36493 C 84.2014 % 3.9 C
81 05-05-2019 00:00:00 6.67882 C 81.4167 % 3.73 C
82 06-05-2019 00:00:00 7.62465 C 77.0660 % 3.87 C
83 07-05-2019 00:00:00 9.6066 C 73.7396 % 5.16 C
84 08-05-2019 00:00:00 9.41667 C 88.5972 % 7.63 C
85 09-05-2019 00:00:00 11.20938 C 88.9410 % 9.46 C
86 10-05-2019 00:00:00 12.49306 C 77.5833 % 8.69 C
87 11-05-2019 00:00:00 10.05833 C 93.1111 % 9 C
88 12-05-2019 00:00:00 9.40625 C 72.7778 % 4.78 C
89 13-05-2019 00:00:00 9.96736 C 61.6701 % 2.96 C
90 14-05-2019 00:00:00 9.58299 C 64.4479 % 3.22 C
91 15-05-2019 00:00:00 9.79896 C 60.9583 % 2.64 C
92 16-05-2019 00:00:00 10.83854 C 70.4271 % 5.68 C
93 17-05-2019 00:00:00 11.60069 C 89.4896 % 9.93 C
94 18-05-2019 00:00:00 14.44306 C 85.5035 % 12.04 C
95 19-05-2019 00:00:00 15.85694 C 83.5868 % 13.08 C
96 20-05-2019 00:00:00 13.90347 C 89.8125 % 12.26 C
97 21-05-2019 00:00:00 12.49722 C 93.0868 % 11.41 C
98 22-05-2019 00:00:00 13.38785 C 80.8681 % 10.17 C
99 23-05-2019 00:00:00 15.11875 C 74.1389 % 10.55 C
100 24-05-2019 00:00:00 16.93437 C 70.9271 % 11.63 C
Sensor: Nr:Datum:Temp:Feuchte:Taupunkt:
Aussen-T/F 101 25-05-2019 00:00:00 15.60035 C 67.4167 % 9.59 C
102 26-05-2019 00:00:00 15.92014 C 74.4549 % 11.39 C
103 27-05-2019 00:00:00 14.98924 C 90.8889 % 13.51 C
104 28-05-2019 00:00:00 13.95729 C 85.1146 % 11.5 C
105 29-05-2019 00:00:00 14.97951 C 68.2535 % 9.18 C
106 30-05-2019 00:00:00 15.62396 C 78.5069 % 11.9 C
107 31-05-2019 00:00:00 19.22674 C 74.1806 % 14.52 C
108 01-06-2019 00:00:00 19.98924 C 74.3090 % 15.28 C
109 02-06-2019 00:00:00 22.09028 C 70.5521 % 16.49 C
110 03-06-2019 00:00:00 20.85625 C 73.4583 % 15.94 C
111 04-06-2019 00:00:00 21.5059 C 73.6146 % 16.59 C
112 05-06-2019 00:00:00 23.45243 C 67.8507 % 17.17 C
113 06-06-2019 00:00:00 15.94271 C 78.5556 % 12.22 C
114 07-06-2019 00:00:00 15.6809 C 76.3646 % 11.54 C
115 08-06-2019 00:00:00 16.15243 C 62.7743 % 9.06 C
116 09-06-2019 00:00:00 16.23438 C 72.8542 % 11.36 C
117 10-06-2019 00:00:00 19.2684 C 73.8403 % 14.49 C
118 11-06-2019 00:00:00 17.19063 C 83.4826 % 14.37 C
119 12-06-2019 00:00:00 16.48854 C 82.3194 % 13.47 C
120 13-06-2019 00:00:00 15.92743 C 75.5694 % 11.62 C
121 14-06-2019 00:00:00 17.88507 C 82.6875 % 14.9 C
122 15-06-2019 00:00:00 19.62083 C 79.3646 % 15.95 C
123 16-06-2019 00:00:00 19.34479 C 71.4271 % 14.05 C
124 17-06-2019 00:00:00 18.93646 C 73.1111 % 14.02 C
125 18-06-2019 00:00:00 21.4625 C 72.7188 % 16.36 C
Sensor: Nr:Datum:Temp:Feuchte:Taupunkt:
Aussen-T/F 126 19-06-2019 00:00:00 22.17049 C 73.3125 % 17.17 C
127 20-06-2019 00:00:00 19.48229 C 80.3681 % 16.01 C
128 21-06-2019 00:00:00 18.55694 C 68.4306 % 12.64 C
129 22-06-2019 00:00:00 19.16771 C 69.5729 % 13.47 C
130 23-06-2019 00:00:00 21.78854 C 71.5521 % 16.42 C
131 24-06-2019 00:00:00 24.3809 C 68.9965 % 18.32 C
132 25-06-2019 00:00:00 26.30625 C 65.6458 % 19.36 C
133 26-06-2019 00:00:00 26.97257 C 66.5486 % 20.21 C
134 27-06-2019 00:00:00 24.42326 C 58.6910 % 15.81 C
135 28-06-2019 00:00:00 21.63368 C 60.1458 % 13.57 C
136 29-06-2019 00:00:00 24.00937 C 53.3750 % 13.95 C
137 30-06-2019 00:00:00 25.32014 C 62.4688 % 17.63 C
138 01-07-2019 00:00:00 22.68715 C 60.6875 % 14.7 C
139 02-07-2019 00:00:00 19.04306 C 61.0868 % 11.38 C
140 03-07-2019 00:00:00 17.43472 C 61.1146 % 9.87 C
141 04-07-2019 00:00:00 18.23021 C 56.4375 % 9.43 C
142 05-07-2019 00:00:00 20.73889 C 56.5486 % 11.8 C
143 06-07-2019 00:00:00 21.18681 C 61.5174 % 13.5 C
144 07-07-2019 00:00:00 17.74306 C 68.3819 % 11.85 C
145 08-07-2019 00:00:00 14.44931 C 70.9271 % 9.25 C
146 09-07-2019 00:00:00 15.40868 C 66.0868 % 9.11 C
147 10-07-2019 00:00:00 16.98854 C 57.9271 % 8.66 C
148 11-07-2019 00:00:00 17.76076 C 79.7500 % 14.22 C
149 12-07-2019 00:00:00 17.3375 C 92.0313 % 16.03 C
150 13-07-2019 00:00:00 17.99896 C 83.4549 % 15.15 C
Sensor: Nr:Datum:Temp:Feuchte:Taupunkt:
Aussen-T/F 151 14-07-2019 00:00:00 16.92569 C 75.5729 % 12.58 C
152 15-07-2019 00:00:00 16.34757 C 73.9826 % 11.7 C
153 16-07-2019 00:00:00 16.0375 C 75.3507 % 11.68 C
154 17-07-2019 00:00:00 17.21979 C 76.2847 % 13.01 C
155 18-07-2019 00:00:00 19.06944 C 74.1424 % 14.36 C
156 19-07-2019 00:00:00 20.2441 C 77.7257 % 16.23 C
157 20-07-2019 00:00:00 21.61736 C 75.2292 % 17.04 C
158 21-07-2019 00:00:00 21.96076 C 68.7569 % 15.96 C
159 22-07-2019 00:00:00 22.29861 C 66.0139 % 15.64 C
160 23-07-2019 00:00:00 25.05139 C 61.5764 % 17.15 C
161 24-07-2019 00:00:00 27.05069 C 57.6528 % 17.98 C
162 25-07-2019 00:00:00 28.69028 C 53.5729 % 18.33 C
163 26-07-2019 00:00:00 27.21528 C 56.0694 % 17.69 C
164 27-07-2019 00:00:00 23.20069 C 79.9340 % 19.54 C
165 28-07-2019 00:00:00 19.86597 C 90.5938 % 18.28 C
166 29-07-2019 00:00:00 21.16354 C 73.6146 % 16.26 C
167 30-07-2019 00:00:00 21.86528 C 66.5625 % 15.36 C
168 31-07-2019 00:00:00 21.06111 C 60.7778 % 13.2 C
169 01-08-2019 00:00:00 19.46424 C 65.5833 % 12.85 C
170 02-08-2019 00:00:00 20.52743 C 69.8611 % 14.84 C
171 03-08-2019 00:00:00 20.39271 C 72.5833 % 15.3 C
172 04-08-2019 00:00:00 20.53854 C 68.3681 % 14.51 C
173 05-08-2019 00:00:00 22.56562 C 67.3333 % 16.21 C
174 06-08-2019 00:00:00 19.97604 C 80.0104 % 16.42 C
175 07-08-2019 00:00:00 19.07535 C 87.4479 % 16.94 C
Sensor: Nr:Datum:Temp:Feuchte:Taupunkt:
Aussen-T/F 176 08-08-2019 00:00:00 20.39132 C 75.4826 % 15.91 C
177 09-08-2019 00:00:00 19.85833 C 86.8125 % 17.6 C
178 10-08-2019 00:00:00 20.67986 C 77.2986 % 16.56 C
179 11-08-2019 00:00:00 16.99444 C 80.9028 % 13.69 C
180 12-08-2019 00:00:00 16.4441 C 84.5729 % 13.84 C
181 13-08-2019 00:00:00 15.94306 C 78.5799 % 12.23 C

Maximal/Minimal-Werte vom 14.02.2019 - 13.08.2019

Sensor Min Max Avg
Temp
(Aussen-T/F)
-2.7 °C
14-02-2019  07:00:00
40.4 °C
25-07-2019  16:20:00
13.92 °C
Feuchte
(Aussen-T/F)
19 %
06-07-2019  15:50:00
98 %
17-02-2019  12:30:00
75.77 %
Taupunkt
(Aussen-T/F)
-2.32 C
12-04-2019  00:00:00
20.21 C
26-06-2019  00:00:00
9.5 C

Die Daten stammen von einer Davis Vantage Pro 2 Wetter-Station und werden unter Linux mit der Software wview2wettercgi und aufbereitet. Alle Angaben erfolgen ohne Gewähr für ihre Vollständigkeit oder Richtigkeit.
Kontakt: Rainer Krienke krienke@uni-koblenz.de . Meine Webseiten an der Uni Koblenz oder privat.
Version: $Revision: 0.78 $